Time,TemperatureF,DewpointF,PressureIn,WindDirection,WindDirectionDegrees,WindSpeedMPH,WindSpeedGustMPH,Humidity,HourlyPrecipIn,Conditions,Clouds,dailyrainin,SoftwareType,DateUTC
2013-04-30 00:00:00,60.5,59.4,29.88,SW,225,0.0,0.0,96,0.00,,---,0.00,VWS V14.01,2013-04-30 05:00:00,
2013-04-30 00:05:00,60.4,59.3,29.88,SW,225,0.0,0.0,96,0.00,,---,0.00,VWS V14.01,2013-04-30 05:05:00,
2013-04-30 00:06:00,60.4,59.3,29.88,SW,225,0.0,0.0,96,0.00,,---,0.00,VWS V14.01,2013-04-30 05:06:00,
2013-04-30 00:10:00,60.4,59.3,29.88,SW,225,0.0,0.0,96,0.00,,---,0.00,VWS V14.01,2013-04-30 05:10:00,
2013-04-30 00:15:00,60.2,59.1,29.88,SW,225,0.0,0.0,96,0.00,,---,0.00,VWS V14.01,2013-04-30 05:15:00,
2013-04-30 00:20:00,60.2,59.3,29.88,SW,225,0.0,0.0,97,0.00,,---,0.00,VWS V14.01,2013-04-30 05:20:00,
2013-04-30 00:25:00,60.0,59.2,29.88,SW,225,0.0,0.0,97,0.00,,---,0.00,VWS V14.01,2013-04-30 05:25:00,
2013-04-30 00:30:00,60.1,59.2,29.88,SW,225,0.0,0.0,97,0.00,,---,0.00,VWS V14.01,2013-04-30 05:30:00,
2013-04-30 00:35:00,60.0,59.2,29.88,SW,225,0.0,0.0,97,0.00,,---,0.00,VWS V14.01,2013-04-30 05:35:00,
2013-04-30 00:40:00,59.8,58.7,29.88,SW,225,0.0,0.0,96,0.00,,---,0.00,VWS V14.01,2013-04-30 05:40:00,
2013-04-30 00:45:00,59.7,58.8,29.88,SW,225,0.0,0.0,97,0.00,,---,0.00,VWS V14.01,2013-04-30 05:45:00,
2013-04-30 00:50:00,59.6,58.8,29.88,SW,225,0.0,0.0,97,0.00,,---,0.00,VWS V14.01,2013-04-30 05:50:00,
2013-04-30 00:55:00,59.7,58.8,29.88,SW,225,0.0,0.0,97,0.00,,---,0.00,VWS V14.01,2013-04-30 05:55:00,
2013-04-30 01:00:00,59.5,58.7,29.88,SW,225,0.0,0.0,97,0.00,,---,0.00,VWS V14.01,2013-04-30 06:00:00,
2013-04-30 01:05:00,59.4,58.5,29.88,SW,225,0.0,0.0,97,0.00,,---,0.00,VWS V14.01,2013-04-30 06:05:00,
2013-04-30 01:06:00,59.4,58.5,29.88,SW,225,0.0,0.0,97,0.00,,---,0.00,VWS V14.01,2013-04-30 06:06:00,
2013-04-30 01:10:00,59.4,58.5,29.88,SW,225,0.0,0.0,97,0.00,,---,0.00,VWS V14.01,2013-04-30 06:10:00,
2013-04-30 01:15:00,59.4,58.5,29.88,SW,225,0.0,0.0,97,0.00,,---,0.00,VWS V14.01,2013-04-30 06:15:00,
2013-04-30 01:20:00,59.3,58.5,29.88,SW,225,0.0,0.0,97,0.00,,---,0.00,VWS V14.01,2013-04-30 06:20:00,
2013-04-30 01:25:00,59.2,58.3,29.88,SW,225,0.0,0.0,97,0.00,,---,0.00,VWS V14.01,2013-04-30 06:25:00,
2013-04-30 01:30:00,59.1,58.2,29.88,SW,225,0.0,0.0,97,0.00,,---,0.00,VWS V14.01,2013-04-30 06:30:00,
2013-04-30 01:35:00,59.3,58.5,29.88,SW,225,0.0,0.0,97,0.00,,---,0.00,VWS V14.01,2013-04-30 06:35:00,
2013-04-30 01:36:00,59.3,58.5,29.88,SW,225,0.0,0.0,97,0.00,,---,0.00,VWS V14.01,2013-04-30 06:36:00,
2013-04-30 01:45:00,59.1,58.2,29.88,SW,225,0.0,1.0,97,0.00,,---,0.00,VWS V14.01,2013-04-30 06:45:00,
2013-04-30 01:50:00,59.0,58.2,29.87,SW,225,0.0,1.0,97,0.00,,---,0.00,VWS V14.01,2013-04-30 06:50:00,
2013-04-30 01:55:00,59.1,58.2,29.87,SW,225,0.0,1.0,97,0.00,,---,0.00,VWS V14.01,2013-04-30 06:55:00,
2013-04-30 02:00:00,59.1,58.2,29.87,SW,225,0.0,1.0,97,0.00,,---,0.00,VWS V14.01,2013-04-30 07:00:00,
2013-04-30 02:05:00,59.1,58.2,29.87,SW,225,0.0,1.0,97,0.00,,---,0.00,VWS V14.01,2013-04-30 07:05:00,
2013-04-30 02:10:00,59.0,58.2,29.87,SW,225,0.0,0.0,97,0.00,,---,0.00,VWS V14.01,2013-04-30 07:10:00,
2013-04-30 02:15:00,58.8,58.0,29.87,SW,225,0.0,0.0,97,0.00,,---,0.00,VWS V14.01,2013-04-30 07:15:00,
2013-04-30 02:20:00,58.9,58.0,29.87,SW,225,0.0,0.0,97,0.00,,---,0.00,VWS V14.01,2013-04-30 07:20:00,
2013-04-30 02:25:00,59.0,58.2,29.87,SW,225,0.0,0.0,97,0.00,,---,0.00,VWS V14.01,2013-04-30 07:25:00,
2013-04-30 02:30:00,58.9,58.0,29.87,SW,225,0.0,0.0,97,0.00,,---,0.00,VWS V14.01,2013-04-30 07:30:00,
2013-04-30 02:35:00,58.7,57.8,29.87,SW,225,0.0,0.0,97,0.00,,---,0.00,VWS V14.01,2013-04-30 07:35:00,
2013-04-30 02:36:00,58.7,57.8,29.87,SW,225,0.0,0.0,97,0.00,,---,0.00,VWS V14.01,2013-04-30 07:36:00,
2013-04-30 02:40:00,58.7,57.8,29.87,SW,225,0.0,0.0,97,0.00,,---,0.00,VWS V14.01,2013-04-30 07:40:00,
2013-04-30 02:45:00,58.8,58.0,29.87,SW,225,0.0,0.0,97,0.00,,---,0.00,VWS V14.01,2013-04-30 07:45:00,
2013-04-30 02:50:00,58.8,58.0,29.87,SW,225,0.0,0.0,97,0.00,,---,0.00,VWS V14.01,2013-04-30 07:50:00,
2013-04-30 02:55:00,58.7,57.8,29.87,SW,225,0.0,0.0,97,0.00,,---,0.00,VWS V14.01,2013-04-30 07:55:00,
2013-04-30 03:00:00,58.6,57.8,29.87,SW,225,0.0,0.0,97,0.00,,---,0.00,VWS V14.01,2013-04-30 08:00:00,
2013-04-30 03:05:00,58.7,57.8,29.87,SW,225,0.0,0.0,97,0.00,,---,0.00,VWS V14.01,2013-04-30 08:05:00,
2013-04-30 03:06:00,58.7,57.8,29.87,SW,225,0.0,0.0,97,0.00,,---,0.00,VWS V14.01,2013-04-30 08:06:00,
2013-04-30 03:10:00,58.5,57.7,29.87,SW,225,0.0,0.0,97,0.00,,---,0.00,VWS V14.01,2013-04-30 08:10:00,
2013-04-30 03:15:00,58.6,57.8,29.87,SW,225,0.0,0.0,97,0.00,,---,0.00,VWS V14.01,2013-04-30 08:15:00,
2013-04-30 03:20:00,58.5,57.7,29.86,SW,225,0.0,0.0,97,0.00,,---,0.00,VWS V14.01,2013-04-30 08:20:00,
2013-04-30 03:29:00,58.4,57.6,29.87,SW,225,0.0,0.0,97,0.00,,---,0.00,VWS V14.01,2013-04-30 08:29:00,
2013-04-30 03:34:00,58.3,57.5,29.87,SW,225,0.0,0.0,97,0.00,,---,0.00,VWS V14.01,2013-04-30 08:34:00,
2013-04-30 03:36:00,58.3,57.5,29.87,SW,225,0.0,0.0,97,0.00,,---,0.00,VWS V14.01,2013-04-30 08:36:00,
2013-04-30 03:44:00,58.3,57.7,29.86,SW,225,0.0,0.0,98,0.00,,---,0.00,VWS V14.01,2013-04-30 08:44:00,
2013-04-30 03:49:00,58.2,57.6,29.86,SW,225,0.0,0.0,98,0.00,,---,0.00,VWS V14.01,2013-04-30 08:49:00,
2013-04-30 03:54:00,58.1,57.3,29.86,SW,225,0.0,0.0,97,0.00,,---,0.00,VWS V14.01,2013-04-30 08:54:00,
2013-04-30 03:59:00,58.1,57.3,29.86,SW,225,0.0,0.0,97,0.00,,---,0.00,VWS V14.01,2013-04-30 08:59:00,
2013-04-30 04:04:00,58.0,57.2,29.86,SW,225,0.0,0.0,97,0.00,,---,0.00,VWS V14.01,2013-04-30 09:04:00,
2013-04-30 04:06:00,57.9,57.1,29.87,SW,225,0.0,0.0,97,0.00,,---,0.00,VWS V14.01,2013-04-30 09:06:00,
2013-04-30 04:14:00,57.8,57.0,29.87,SW,225,0.0,0.0,97,0.00,,---,0.00,VWS V14.01,2013-04-30 09:14:00,
2013-04-30 04:19:00,57.9,57.3,29.86,SW,225,0.0,0.0,98,0.00,,---,0.00,VWS V14.01,2013-04-30 09:19:00,
2013-04-30 04:24:00,57.9,57.3,29.86,SW,225,0.0,0.0,98,0.00,,---,0.00,VWS V14.01,2013-04-30 09:24:00,
2013-04-30 04:29:00,57.8,57.2,29.86,SW,225,0.0,0.0,98,0.00,,---,0.00,VWS V14.01,2013-04-30 09:29:00,
2013-04-30 04:34:00,57.7,57.1,29.86,SW,225,0.0,0.0,98,0.00,,---,0.00,VWS V14.01,2013-04-30 09:34:00,
2013-04-30 04:36:00,57.7,57.1,29.86,SW,225,0.0,0.0,98,0.00,,---,0.00,VWS V14.01,2013-04-30 09:36:00,
2013-04-30 04:39:00,57.7,57.1,29.86,SW,225,0.0,0.0,98,0.00,,---,0.00,VWS V14.01,2013-04-30 09:39:00,
2013-04-30 04:44:00,57.8,57.2,29.86,SW,225,0.0,0.0,98,0.00,,---,0.00,VWS V14.01,2013-04-30 09:44:00,
2013-04-30 04:49:00,57.8,57.2,29.86,SW,225,0.0,0.0,98,0.00,,---,0.00,VWS V14.01,2013-04-30 09:49:00,
2013-04-30 04:54:00,57.6,57.0,29.86,SW,225,0.0,0.0,98,0.00,,---,0.00,VWS V14.01,2013-04-30 09:54:00,
2013-04-30 04:59:00,57.5,56.7,29.86,SW,225,0.0,0.0,97,0.00,,---,0.00,VWS V14.01,2013-04-30 09:59:00,
2013-04-30 05:04:00,57.6,56.8,29.86,SW,225,0.0,0.0,97,0.00,,---,0.00,VWS V14.01,2013-04-30 10:04:00,
2013-04-30 05:06:00,57.6,56.8,29.86,SW,225,0.0,0.0,97,0.00,,---,0.00,VWS V14.01,2013-04-30 10:06:00,
2013-04-30 05:09:00,57.5,56.7,29.86,SW,225,0.0,0.0,97,0.00,,---,0.00,VWS V14.01,2013-04-30 10:09:00,
2013-04-30 05:14:00,57.4,56.6,29.86,SW,225,0.0,0.0,97,0.00,,---,0.00,VWS V14.01,2013-04-30 10:14:00,
2013-04-30 05:19:00,57.4,56.8,29.86,SW,225,0.0,0.0,98,0.00,,---,0.00,VWS V14.01,2013-04-30 10:19:00,
2013-04-30 05:24:00,57.4,56.8,29.86,SW,225,0.0,0.0,98,0.00,,---,0.00,VWS V14.01,2013-04-30 10:24:00,
2013-04-30 05:29:00,57.4,56.8,29.86,SW,225,0.0,0.0,98,0.00,,---,0.00,VWS V14.01,2013-04-30 10:29:00,
2013-04-30 05:34:00,57.5,56.9,29.86,SW,225,0.0,0.0,98,0.00,,---,0.00,VWS V14.01,2013-04-30 10:34:00,
2013-04-30 05:36:00,57.4,56.8,29.86,SW,225,0.0,0.0,98,0.00,,---,0.00,VWS V14.01,2013-04-30 10:36:00,
2013-04-30 05:44:00,57.2,56.6,29.87,SW,225,0.0,0.0,98,0.00,,---,0.00,VWS V14.01,2013-04-30 10:44:00,
2013-04-30 05:49:00,57.2,56.6,29.87,SW,225,0.0,0.0,98,0.00,,---,0.00,VWS V14.01,2013-04-30 10:49:00,
2013-04-30 05:54:00,57.2,56.6,29.87,SW,225,0.0,0.0,98,0.00,,---,0.00,VWS V14.01,2013-04-30 10:54:00,
2013-04-30 05:59:00,57.1,56.5,29.86,SW,225,0.0,0.0,98,0.00,,---,0.00,VWS V14.01,2013-04-30 10:59:00,
2013-04-30 06:04:00,57.2,56.6,29.86,ENE,76,0.0,0.0,98,0.00,,---,0.00,VWS V14.01,2013-04-30 11:04:00,
2013-04-30 06:06:00,57.1,56.5,29.86,NE,38,0.0,0.0,98,0.00,,---,0.00,VWS V14.01,2013-04-30 11:06:00,
2013-04-30 06:15:00,57.1,56.5,29.87,NE,38,0.0,0.0,98,0.00,,---,0.00,VWS V14.01,2013-04-30 11:15:00,
2013-04-30 06:20:00,57.0,56.4,29.87,NE,38,0.0,0.0,98,0.00,,---,0.00,VWS V14.01,2013-04-30 11:20:00,
2013-04-30 06:25:00,57.3,56.7,29.87,NE,38,0.0,0.0,98,0.00,,---,0.00,VWS V14.01,2013-04-30 11:25:00,
2013-04-30 06:30:00,57.3,56.7,29.87,ENE,73,0.0,1.0,98,0.00,,---,0.00,VWS V14.01,2013-04-30 11:30:00,
2013-04-30 06:35:00,57.4,56.8,29.87,SE,139,0.0,1.0,98,0.00,,---,0.00,VWS V14.01,2013-04-30 11:35:00,
2013-04-30 06:40:00,57.6,57.0,29.87,East,79,0.0,0.0,98,0.00,,---,0.00,VWS V14.01,2013-04-30 11:40:00,
2013-04-30 06:45:00,57.8,57.2,29.88,East,80,0.0,0.0,98,0.00,,---,0.00,VWS V14.01,2013-04-30 11:45:00,
2013-04-30 06:50:00,58.0,57.4,29.88,North,5,0.0,0.0,98,0.00,,---,0.00,VWS V14.01,2013-04-30 11:50:00,
2013-04-30 06:55:00,58.3,57.7,29.87,North,5,0.0,0.0,98,0.00,,---,0.00,VWS V14.01,2013-04-30 11:55:00,
2013-04-30 07:00:00,58.8,58.2,29.87,East,93,0.0,1.0,98,0.00,,---,0.00,VWS V14.01,2013-04-30 12:00:00,
2013-04-30 07:05:00,59.1,58.5,29.88,SSW,207,0.0,1.0,98,0.00,,---,0.00,VWS V14.01,2013-04-30 12:05:00,
2013-04-30 07:06:00,59.2,58.6,29.88,SSE,154,0.0,1.0,98,0.00,,---,0.00,VWS V14.01,2013-04-30 12:06:00,
2013-04-30 07:10:00,59.3,58.7,29.88,SSE,155,1.0,1.0,98,0.00,,---,0.00,VWS V14.01,2013-04-30 12:10:00,
2013-04-30 07:15:00,59.3,58.7,29.88,SSE,147,0.0,1.0,98,0.00,,---,0.00,VWS V14.01,2013-04-30 12:15:00,
2013-04-30 07:20:00,59.6,59.0,29.88,SSE,147,0.0,1.0,98,0.00,,---,0.00,VWS V14.01,2013-04-30 12:20:00,
2013-04-30 07:25:00,59.8,59.2,29.88,SSE,147,0.0,1.0,98,0.00,,---,0.00,VWS V14.01,2013-04-30 12:25:00,
2013-04-30 07:30:00,60.4,59.8,29.88,SE,129,0.0,1.0,98,0.00,,---,0.00,VWS V14.01,2013-04-30 12:30:00,
2013-04-30 07:35:00,61.2,60.6,29.88,SE,126,0.0,1.0,98,0.00,,---,0.00,VWS V14.01,2013-04-30 12:35:00,
2013-04-30 07:36:00,61.5,60.9,29.88,SE,126,0.0,1.0,98,0.00,,---,0.00,VWS V14.01,2013-04-30 12:36:00,
2013-04-30 07:40:00,61.8,61.2,29.88,SE,134,0.0,0.0,98,0.00,,---,0.00,VWS V14.01,2013-04-30 12:40:00,
2013-04-30 07:45:00,62.5,61.9,29.88,NW,304,0.0,1.0,98,0.00,,---,0.00,VWS V14.01,2013-04-30 12:45:00,
2013-04-30 07:50:00,62.6,62.0,29.88,NW,304,0.0,1.0,98,0.00,,---,0.00,VWS V14.01,2013-04-30 12:50:00,
2013-04-30 07:55:00,63.3,62.7,29.88,West,280,0.0,1.0,98,0.00,,---,0.00,VWS V14.01,2013-04-30 12:55:00,
2013-04-30 08:00:00,64.1,63.5,29.88,SE,146,0.0,1.0,98,0.00,,---,0.00,VWS V14.01,2013-04-30 13:00:00,
2013-04-30 08:05:00,64.9,64.3,29.88,ENE,77,0.0,1.0,98,0.00,,---,0.00,VWS V14.01,2013-04-30 13:05:00,
2013-04-30 08:10:00,65.6,64.7,29.88,SSW,192,0.0,1.0,97,0.00,,---,0.00,VWS V14.01,2013-04-30 13:10:00,
2013-04-30 08:15:00,66.3,65.1,29.88,ESE,119,0.0,1.0,96,0.00,,---,0.00,VWS V14.01,2013-04-30 13:15:00,
2013-04-30 08:20:00,66.7,65.2,29.88,NE,36,0.0,1.0,95,0.00,,---,0.00,VWS V14.01,2013-04-30 13:20:00,
2013-04-30 08:25:00,67.0,65.5,29.87,North,5,0.0,1.0,95,0.00,,---,0.00,VWS V14.01,2013-04-30 13:25:00,
2013-04-30 08:30:00,67.5,65.7,29.87,North,9,0.0,1.0,94,0.00,,---,0.00,VWS V14.01,2013-04-30 13:30:00,
2013-04-30 08:35:00,68.1,66.3,29.88,SE,124,0.0,2.0,94,0.00,,---,0.00,VWS V14.01,2013-04-30 13:35:00,
2013-04-30 08:40:00,68.6,66.8,29.88,SSE,163,0.0,1.0,94,0.00,,---,0.00,VWS V14.01,2013-04-30 13:40:00,
2013-04-30 08:45:00,68.9,66.8,29.88,SSW,203,0.0,1.0,93,0.00,,---,0.00,VWS V14.01,2013-04-30 13:45:00,
2013-04-30 08:50:00,69.4,67.0,29.87,NNE,25,0.0,1.0,92,0.00,,---,0.00,VWS V14.01,2013-04-30 13:50:00,
2013-04-30 08:55:00,70.0,67.6,29.88,NNE,25,1.0,1.0,92,0.00,,---,0.00,VWS V14.01,2013-04-30 13:55:00,
2013-04-30 09:00:00,70.7,67.9,29.87,East,84,1.0,2.0,91,0.00,,---,0.00,VWS V14.01,2013-04-30 14:00:00,
2013-04-30 09:05:00,71.2,68.1,29.87,ENE,64,0.0,2.0,90,0.00,,---,0.00,VWS V14.01,2013-04-30 14:05:00,
2013-04-30 09:06:00,71.2,67.8,29.87,ENE,64,1.0,2.0,89,0.00,,---,0.00,VWS V14.01,2013-04-30 14:06:00,
2013-04-30 09:15:00,72.3,68.2,29.87,East,79,2.0,3.0,87,0.00,,---,0.00,VWS V14.01,2013-04-30 14:15:00,
2013-04-30 09:20:00,73.0,69.2,29.87,East,79,2.0,3.0,88,0.00,,---,0.00,VWS V14.01,2013-04-30 14:20:00,
2013-04-30 09:25:00,73.2,69.1,29.87,ENE,68,1.0,3.0,87,0.00,,---,0.00,VWS V14.01,2013-04-30 14:25:00,
2013-04-30 09:30:00,73.7,69.3,29.87,ENE,69,1.0,3.0,86,0.00,,---,0.00,VWS V14.01,2013-04-30 14:30:00,
2013-04-30 09:35:00,73.9,69.1,29.87,East,100,1.0,3.0,85,0.00,,---,0.00,VWS V14.01,2013-04-30 14:35:00,
2013-04-30 09:36:00,73.9,69.1,29.88,East,100,1.0,3.0,85,0.00,,---,0.00,VWS V14.01,2013-04-30 14:36:00,
2013-04-30 09:45:00,74.6,69.4,29.88,ESE,120,2.0,3.0,84,0.00,,---,0.00,VWS V14.01,2013-04-30 14:45:00,
2013-04-30 09:50:00,74.8,68.9,29.88,East,97,1.0,3.0,82,0.00,,---,0.00,VWS V14.01,2013-04-30 14:50:00,
2013-04-30 09:55:00,75.3,70.1,29.88,East,90,1.0,3.0,84,0.00,,---,0.00,VWS V14.01,2013-04-30 14:55:00,
2013-04-30 10:00:00,76.0,70.1,29.88,East,85,3.0,5.0,82,0.00,,---,0.00,VWS V14.01,2013-04-30 15:00:00,
2013-04-30 10:05:00,76.0,69.4,29.88,ESE,107,1.0,5.0,80,0.00,,---,0.00,VWS V14.01,2013-04-30 15:05:00,
2013-04-30 10:06:00,75.8,69.2,29.88,ESE,107,0.0,5.0,80,0.00,,---,0.00,VWS V14.01,2013-04-30 15:06:00,
2013-04-30 10:10:00,75.7,69.1,29.88,East,86,3.0,6.0,80,0.00,,---,0.00,VWS V14.01,2013-04-30 15:10:00,
2013-04-30 10:15:00,75.3,69.1,29.88,ESE,104,1.0,6.0,81,0.00,,---,0.00,VWS V14.01,2013-04-30 15:15:00,
2013-04-30 10:20:00,75.3,69.1,29.89,East,86,1.0,6.0,81,0.00,,---,0.00,VWS V14.01,2013-04-30 15:20:00,
2013-04-30 10:25:00,75.3,69.1,29.88,East,95,3.0,6.0,81,0.00,,---,0.00,VWS V14.01,2013-04-30 15:25:00,
2013-04-30 10:30:00,75.1,68.9,29.88,ESE,119,2.0,6.0,81,0.00,,---,0.00,VWS V14.01,2013-04-30 15:30:00,
2013-04-30 10:35:00,74.6,68.4,29.89,ESE,119,0.0,6.0,81,0.00,,---,0.00,VWS V14.01,2013-04-30 15:35:00,
2013-04-30 10:36:00,74.6,68.8,29.89,ESE,119,2.0,6.0,82,0.00,,---,0.00,VWS V14.01,2013-04-30 15:36:00,
2013-04-30 10:45:00,74.4,68.6,29.89,ESE,120,3.0,6.0,82,0.00,,---,0.00,VWS V14.01,2013-04-30 15:45:00,
2013-04-30 10:50:00,74.2,68.4,29.89,ESE,123,1.0,6.0,82,0.00,,---,0.00,VWS V14.01,2013-04-30 15:50:00,
2013-04-30 10:55:00,74.0,68.5,29.89,East,82,1.0,6.0,83,0.00,,---,0.00,VWS V14.01,2013-04-30 15:55:00,
2013-04-30 11:00:00,73.8,68.3,29.89,East,81,0.0,6.0,83,0.00,,---,0.00,VWS V14.01,2013-04-30 16:00:00,
2013-04-30 11:05:00,73.8,69.0,29.89,NE,45,0.0,6.0,85,0.00,,---,0.00,VWS V14.01,2013-04-30 16:05:00,
2013-04-30 11:06:00,73.9,69.1,29.89,NE,45,0.0,6.0,85,0.00,,---,0.00,VWS V14.01,2013-04-30 16:06:00,
2013-04-30 11:10:00,73.9,69.4,29.89,ENE,74,1.0,2.0,86,0.00,,---,0.00,VWS V14.01,2013-04-30 16:10:00,
2013-04-30 11:15:00,73.8,69.0,29.89,ENE,74,1.0,3.0,85,0.00,,---,0.00,VWS V14.01,2013-04-30 16:15:00,
2013-04-30 11:20:00,73.5,69.1,29.89,NE,54,1.0,3.0,86,0.00,,---,0.00,VWS V14.01,2013-04-30 16:20:00,
2013-04-30 11:25:00,73.5,68.7,29.89,SE,132,1.0,3.0,85,0.00,,---,0.00,VWS V14.01,2013-04-30 16:25:00,
2013-04-30 11:30:00,73.5,68.7,29.89,ESE,115,1.0,3.0,85,0.00,,---,0.00,VWS V14.01,2013-04-30 16:30:00,
2013-04-30 11:35:00,73.5,68.7,29.89,ESE,119,1.0,5.0,85,0.00,,---,0.00,VWS V14.01,2013-04-30 16:35:00,
2013-04-30 11:36:00,73.6,68.8,29.89,SE,139,0.0,5.0,85,0.00,,---,0.00,VWS V14.01,2013-04-30 16:36:00,
2013-04-30 11:40:00,73.9,68.8,29.89,SE,137,1.0,3.0,84,0.00,,---,0.00,VWS V14.01,2013-04-30 16:40:00,
2013-04-30 11:45:00,73.9,69.1,29.89,ENE,78,0.0,3.0,85,0.00,,---,0.00,VWS V14.01,2013-04-30 16:45:00,
2013-04-30 11:50:00,73.8,68.7,29.89,ENE,77,2.0,5.0,84,0.00,,---,0.00,VWS V14.01,2013-04-30 16:50:00,
2013-04-30 11:55:00,73.5,68.4,29.89,ESE,109,1.0,5.0,84,0.00,,---,0.00,VWS V14.01,2013-04-30 16:55:00,
2013-04-30 12:00:00,73.4,68.6,29.89,ESE,109,1.0,5.0,85,0.00,,---,0.00,VWS V14.01,2013-04-30 17:00:00,
2013-04-30 12:06:00,73.5,68.7,29.89,ESE,108,2.0,5.0,85,0.00,,---,0.00,VWS V14.01,2013-04-30 17:06:00,
2013-04-30 12:11:00,73.6,68.8,29.88,ENE,59,1.0,3.0,85,0.00,,---,0.00,VWS V14.01,2013-04-30 17:11:00,
2013-04-30 12:16:00,73.8,69.0,29.88,ESE,106,3.0,3.0,85,0.00,,---,0.00,VWS V14.01,2013-04-30 17:16:00,
2013-04-30 12:21:00,73.2,68.1,29.88,SE,128,1.0,4.0,84,0.00,,---,0.00,VWS V14.01,2013-04-30 17:21:00,
2013-04-30 12:26:00,73.2,68.8,29.88,ESE,108,2.0,5.0,86,0.00,,---,0.00,VWS V14.01,2013-04-30 17:26:00,
2013-04-30 12:31:00,73.4,68.6,29.88,NE,51,2.0,5.0,85,0.00,,---,0.00,VWS V14.01,2013-04-30 17:31:00,
2013-04-30 12:36:00,73.3,68.2,29.87,East,87,2.0,5.0,84,0.00,,---,0.00,VWS V14.01,2013-04-30 17:36:00,
2013-04-30 12:41:00,73.2,68.8,29.87,East,86,2.0,5.0,86,0.00,,---,0.00,VWS V14.01,2013-04-30 17:41:00,
2013-04-30 12:46:00,73.2,68.1,29.87,South,171,3.0,5.0,84,0.00,,---,0.00,VWS V14.01,2013-04-30 17:46:00,
2013-04-30 12:51:00,73.1,68.0,29.87,East,84,2.0,5.0,84,0.00,,---,0.00,VWS V14.01,2013-04-30 17:51:00,
2013-04-30 12:56:00,73.3,68.2,29.87,East,96,2.0,5.0,84,0.00,,---,0.00,VWS V14.01,2013-04-30 17:56:00,
2013-04-30 13:01:00,72.9,67.4,29.87,ESE,120,3.0,5.0,83,0.00,,---,0.00,VWS V14.01,2013-04-30 18:01:00,
2013-04-30 13:06:00,72.7,67.2,29.87,SE,126,1.0,5.0,83,0.00,,---,0.00,VWS V14.01,2013-04-30 18:06:00,
2013-04-30 13:11:00,72.7,67.6,29.87,ESE,116,1.0,3.0,84,0.00,,---,0.00,VWS V14.01,2013-04-30 18:11:00,
2013-04-30 13:16:00,72.6,67.5,29.87,SSE,153,2.0,3.0,84,0.00,,---,0.00,VWS V14.01,2013-04-30 18:16:00,
2013-04-30 13:21:00,72.7,67.9,29.87,NNE,22,1.0,3.0,85,0.00,,---,0.00,VWS V14.01,2013-04-30 18:21:00,
2013-04-30 13:26:00,72.8,68.0,29.86,ESE,106,1.0,3.0,85,0.00,,---,0.00,VWS V14.01,2013-04-30 18:26:00,
2013-04-30 13:31:00,73.3,68.5,29.86,East,82,1.0,3.0,85,0.00,,---,0.00,VWS V14.01,2013-04-30 18:31:00,
2013-04-30 13:36:00,73.3,68.2,29.86,East,101,0.0,3.0,84,0.00,,---,0.00,VWS V14.01,2013-04-30 18:36:00,
2013-04-30 13:46:00,73.6,68.1,29.86,East,81,2.0,3.0,83,0.00,,---,0.00,VWS V14.01,2013-04-30 18:46:00,
2013-04-30 13:51:00,73.7,68.2,29.86,ENE,64,0.0,3.0,83,0.00,,---,0.00,VWS V14.01,2013-04-30 18:51:00,
2013-04-30 13:56:00,73.8,68.3,29.86,ENE,76,3.0,3.0,83,0.00,,---,0.00,VWS V14.01,2013-04-30 18:56:00,
2013-04-30 14:01:00,73.5,68.0,29.85,ENE,78,1.0,3.0,83,0.00,,---,0.00,VWS V14.01,2013-04-30 19:01:00,
2013-04-30 14:06:00,73.5,68.0,29.85,ENE,78,2.0,3.0,83,0.00,,---,0.00,VWS V14.01,2013-04-30 19:06:00,
2013-04-30 14:16:00,73.3,68.2,29.85,ESE,108,0.0,3.0,84,0.00,,---,0.00,VWS V14.01,2013-04-30 19:16:00,
2013-04-30 14:21:00,73.2,68.1,29.85,SSE,147,0.0,3.0,84,0.00,,---,0.00,VWS V14.01,2013-04-30 19:21:00,
2013-04-30 14:26:00,73.1,68.0,29.86,SE,128,0.0,3.0,84,0.00,,---,0.00,VWS V14.01,2013-04-30 19:26:00,
2013-04-30 14:31:00,73.0,67.9,29.86,SE,125,0.0,3.0,84,0.00,,---,0.00,VWS V14.01,2013-04-30 19:31:00,
2013-04-30 14:36:00,73.0,67.9,29.86,SE,125,0.0,3.0,84,0.00,,---,0.00,VWS V14.01,2013-04-30 19:36:00,
2013-04-30 14:41:00,73.1,68.7,29.86,NE,46,0.0,3.0,86,0.00,,---,0.00,VWS V14.01,2013-04-30 19:41:00,
2013-04-30 14:46:00,73.1,68.3,29.86,West,262,0.0,3.0,85,0.00,,---,0.00,VWS V14.01,2013-04-30 19:46:00,
2013-04-30 14:51:00,73.3,68.5,29.86,West,262,1.0,3.0,85,0.00,,---,0.00,VWS V14.01,2013-04-30 19:51:00,
2013-04-30 14:56:00,73.6,68.5,29.86,ENE,62,0.0,3.0,84,0.00,,---,0.00,VWS V14.01,2013-04-30 19:56:00,
2013-04-30 15:01:00,73.7,68.6,29.85,ENE,62,0.0,3.0,84,0.00,,---,0.00,VWS V14.01,2013-04-30 20:01:00,
2013-04-30 15:06:00,74.0,68.9,29.85,South,178,0.0,3.0,84,0.00,,---,0.00,VWS V14.01,2013-04-30 20:06:00,
2013-04-30 15:11:00,74.4,68.9,29.85,South,178,1.0,2.0,83,0.00,,---,0.00,VWS V14.01,2013-04-30 20:11:00,
2013-04-30 15:16:00,74.8,68.9,29.85,East,82,1.0,2.0,82,0.00,,---,0.00,VWS V14.01,2013-04-30 20:16:00,
2013-04-30 15:21:00,75.0,69.1,29.85,East,88,0.0,2.0,82,0.00,,---,0.00,VWS V14.01,2013-04-30 20:21:00,
2013-04-30 15:26:00,75.0,68.8,29.84,East,88,0.0,2.0,81,0.00,,---,0.00,VWS V14.01,2013-04-30 20:26:00,
2013-04-30 15:31:00,75.0,69.1,29.84,East,88,0.0,2.0,82,0.00,,---,0.00,VWS V14.01,2013-04-30 20:31:00,
2013-04-30 15:36:00,75.0,68.8,29.84,East,88,2.0,2.0,81,0.00,,---,0.00,VWS V14.01,2013-04-30 20:36:00,
2013-04-30 15:41:00,75.2,68.6,29.83,East,86,2.0,3.0,80,0.00,,---,0.00,VWS V14.01,2013-04-30 20:41:00,
2013-04-30 15:46:00,75.3,69.4,29.83,East,79,2.0,3.0,82,0.00,,---,0.00,VWS V14.01,2013-04-30 20:46:00,
2013-04-30 15:51:00,75.6,69.4,29.83,East,79,2.0,3.0,81,0.00,,---,0.00,VWS V14.01,2013-04-30 20:51:00,
2013-04-30 15:56:00,75.6,69.7,29.83,East,79,1.0,3.0,82,0.00,,---,0.00,VWS V14.01,2013-04-30 20:56:00,
2013-04-30 16:01:00,76.0,69.8,29.82,East,79,1.0,3.0,81,0.00,,---,0.00,VWS V14.01,2013-04-30 21:01:00,
2013-04-30 16:06:00,76.0,69.8,29.82,East,79,3.0,3.0,81,0.00,,---,0.00,VWS V14.01,2013-04-30 21:06:00,
2013-04-30 16:11:00,76.3,70.1,29.82,East,79,1.0,3.0,81,0.00,,---,0.00,VWS V14.01,2013-04-30 21:11:00,
2013-04-30 16:16:00,76.5,69.9,29.82,East,79,2.0,3.0,80,0.00,,---,0.00,VWS V14.01,2013-04-30 21:16:00,
2013-04-30 16:21:00,76.4,69.4,29.82,East,79,0.0,3.0,79,0.00,,---,0.00,VWS V14.01,2013-04-30 21:21:00,
2013-04-30 16:26:00,76.6,70.0,29.82,East,79,0.0,3.0,80,0.00,,---,0.00,VWS V14.01,2013-04-30 21:26:00,
2013-04-30 16:31:00,76.4,69.8,29.82,East,80,1.0,3.0,80,0.00,,---,0.00,VWS V14.01,2013-04-30 21:31:00,
2013-04-30 16:36:00,76.8,69.4,29.82,ENE,75,1.0,4.0,78,0.00,,---,0.00,VWS V14.01,2013-04-30 21:36:00,
2013-04-30 16:41:00,77.6,69.1,29.82,East,82,2.0,5.0,75,0.00,,---,0.00,VWS V14.01,2013-04-30 21:41:00,
2013-04-30 16:46:00,77.8,68.9,29.82,East,82,2.0,5.0,74,0.00,,---,0.00,VWS V14.01,2013-04-30 21:46:00,
2013-04-30 16:51:00,77.5,69.3,29.82,East,82,0.0,5.0,76,0.00,,---,0.00,VWS V14.01,2013-04-30 21:51:00,
2013-04-30 16:56:00,77.1,69.3,29.82,ENE,76,0.0,5.0,77,0.00,,---,0.00,VWS V14.01,2013-04-30 21:56:00,
2013-04-30 17:01:00,76.9,68.4,29.82,East,82,0.0,5.0,75,0.00,,---,0.00,VWS V14.01,2013-04-30 22:01:00,
2013-04-30 17:06:00,76.7,68.9,29.82,ESE,109,1.0,5.0,77,0.00,,---,0.00,VWS V14.01,2013-04-30 22:06:00,
2013-04-30 17:11:00,76.7,68.9,29.82,ESE,109,1.0,2.0,77,0.00,,---,0.00,VWS V14.01,2013-04-30 22:11:00,
2013-04-30 17:16:00,77.1,68.6,29.82,ESE,107,4.0,6.0,75,0.00,,---,0.00,VWS V14.01,2013-04-30 22:16:00,
2013-04-30 17:21:00,76.9,68.8,29.81,East,87,2.0,6.0,76,0.00,,---,0.00,VWS V14.01,2013-04-30 22:21:00,
2013-04-30 17:26:00,76.4,68.3,29.81,East,87,2.0,6.0,76,0.00,,---,0.00,VWS V14.01,2013-04-30 22:26:00,
2013-04-30 17:31:00,76.7,68.9,29.81,East,90,2.0,6.0,77,0.00,,---,0.00,VWS V14.01,2013-04-30 22:31:00,
2013-04-30 17:36:00,77.5,69.3,29.81,ENE,75,1.0,6.0,76,0.00,,---,0.00,VWS V14.01,2013-04-30 22:36:00,
2013-04-30 17:41:00,77.0,70.0,29.82,NW,308,1.0,2.0,79,0.00,,---,0.00,VWS V14.01,2013-04-30 22:41:00,
2013-04-30 17:46:00,76.4,69.4,29.81,North,355,0.0,2.0,79,0.00,,---,0.00,VWS V14.01,2013-04-30 22:46:00,
2013-04-30 17:52:00,75.9,68.6,29.82,ESE,105,2.0,3.0,78,0.00,,---,0.00,VWS V14.01,2013-04-30 22:52:00,
2013-04-30 17:57:00,75.7,68.7,29.81,East,83,1.0,3.0,79,0.00,,---,0.00,VWS V14.01,2013-04-30 22:57:00,
2013-04-30 18:02:00,75.5,68.2,29.82,NNW,343,0.0,3.0,78,0.00,,---,0.00,VWS V14.01,2013-04-30 23:02:00,
2013-04-30 18:06:00,75.7,68.7,29.81,NE,46,0.0,3.0,79,0.00,,---,0.00,VWS V14.01,2013-04-30 23:06:00,
2013-04-30 18:07:00,75.8,68.8,29.81,NE,46,0.0,0.0,79,0.00,,---,0.00,VWS V14.01,2013-04-30 23:07:00,
2013-04-30 18:12:00,76.5,69.1,29.81,NE,34,1.0,2.0,78,0.00,,---,0.00,VWS V14.01,2013-04-30 23:12:00,
2013-04-30 18:17:00,76.7,68.9,29.81,East,85,1.0,3.0,77,0.00,,---,0.00,VWS V14.01,2013-04-30 23:17:00,
2013-04-30 18:22:00,76.7,68.2,29.82,East,89,2.0,4.0,75,0.00,,---,0.00,VWS V14.01,2013-04-30 23:22:00,
2013-04-30 18:27:00,76.5,68.0,29.81,ESE,109,1.0,4.0,75,0.00,,---,0.00,VWS V14.01,2013-04-30 23:27:00,
2013-04-30 18:32:00,76.2,68.1,29.81,ESE,109,2.0,4.0,76,0.00,,---,0.00,VWS V14.01,2013-04-30 23:32:00,
2013-04-30 18:36:00,76.0,68.3,29.81,ESE,109,1.0,4.0,77,0.00,,---,0.00,VWS V14.01,2013-04-30 23:36:00,
2013-04-30 18:42:00,75.8,68.5,29.81,ESE,109,1.0,2.0,78,0.00,,---,0.00,VWS V14.01,2013-04-30 23:42:00,
2013-04-30 18:47:00,75.5,68.2,29.81,East,101,1.0,3.0,78,0.00,,---,0.00,VWS V14.01,2013-04-30 23:47:00,
2013-04-30 18:52:00,75.3,68.0,29.82,East,101,2.0,3.0,78,0.00,,---,0.00,VWS V14.01,2013-04-30 23:52:00,
2013-04-30 18:57:00,75.0,67.7,29.82,NE,38,1.0,3.0,78,0.00,,---,0.00,VWS V14.01,2013-04-30 23:57:00,
2013-04-30 19:02:00,74.6,67.7,29.82,NE,36,2.0,3.0,79,0.00,,---,0.00,VWS V14.01,2013-05-01 00:02:00,
2013-04-30 19:06:00,74.4,67.5,29.82,NE,46,1.0,3.0,79,0.00,,---,0.00,VWS V14.01,2013-05-01 00:06:00,
2013-04-30 19:07:00,74.4,67.5,29.82,NE,46,1.0,1.0,79,0.00,,---,0.00,VWS V14.01,2013-05-01 00:07:00,
2013-04-30 19:12:00,74.2,67.6,29.82,SSE,163,0.0,2.0,80,0.00,,---,0.00,VWS V14.01,2013-05-01 00:12:00,
2013-04-30 19:17:00,74.0,67.8,29.82,SSE,163,1.0,2.0,81,0.00,,---,0.00,VWS V14.01,2013-05-01 00:17:00,
2013-04-30 19:22:00,73.8,67.6,29.82,ENE,76,7.0,9.0,81,0.00,,---,0.00,VWS V14.01,2013-05-01 00:22:00,
2013-04-30 19:27:00,72.6,66.4,29.82,East,92,5.0,9.0,81,0.00,,---,0.00,VWS V14.01,2013-05-01 00:27:00,
2013-04-30 19:32:00,70.8,65.7,29.82,East,84,2.0,9.0,84,0.00,,---,0.00,VWS V14.01,2013-05-01 00:32:00,
2013-04-30 19:36:00,69.8,65.8,29.83,ENE,76,2.0,9.0,87,0.00,,---,0.00,VWS V14.01,2013-05-01 00:36:00,
2013-04-30 19:37:00,69.7,66.0,29.83,ENE,77,3.0,3.0,88,0.00,,---,0.00,VWS V14.01,2013-05-01 00:37:00,
2013-04-30 19:42:00,69.1,65.7,29.83,ENE,77,1.0,3.0,89,0.00,,---,0.00,VWS V14.01,2013-05-01 00:42:00,
2013-04-30 19:47:00,68.8,65.8,29.83,ENE,77,2.0,3.0,90,0.00,,---,0.00,VWS V14.01,2013-05-01 00:47:00,
2013-04-30 19:52:00,68.5,65.8,29.83,ENE,77,1.0,3.0,91,0.00,,---,0.00,VWS V14.01,2013-05-01 00:52:00,
2013-04-30 19:57:00,68.3,65.6,29.83,ENE,77,1.0,3.0,91,0.00,,---,0.00,VWS V14.01,2013-05-01 00:57:00,
2013-04-30 20:02:00,68.1,65.4,29.83,ENE,77,0.0,3.0,91,0.00,,---,0.00,VWS V14.01,2013-05-01 01:02:00,
2013-04-30 20:06:00,68.0,65.3,29.83,ENE,77,1.0,3.0,91,0.00,,---,0.00,VWS V14.01,2013-05-01 01:06:00,
2013-04-30 20:07:00,68.0,65.6,29.83,ENE,77,1.0,2.0,92,0.00,,---,0.00,VWS V14.01,2013-05-01 01:07:00,
2013-04-30 20:12:00,67.8,65.4,29.83,ENE,77,0.0,2.0,92,0.00,,---,0.00,VWS V14.01,2013-05-01 01:12:00,
2013-04-30 20:17:00,67.7,65.3,29.83,ENE,77,0.0,2.0,92,0.00,,---,0.00,VWS V14.01,2013-05-01 01:17:00,
2013-04-30 20:22:00,67.6,65.2,29.83,ENE,77,1.0,2.0,92,0.00,,---,0.00,VWS V14.01,2013-05-01 01:22:00,
2013-04-30 20:27:00,67.6,65.2,29.83,ENE,77,1.0,2.0,92,0.00,,---,0.00,VWS V14.01,2013-05-01 01:27:00,
2013-04-30 20:32:00,67.5,65.4,29.83,ENE,77,1.0,2.0,93,0.00,,---,0.00,VWS V14.01,2013-05-01 01:32:00,
2013-04-30 20:36:00,67.4,65.3,29.83,ENE,77,1.0,2.0,93,0.00,,---,0.00,VWS V14.01,2013-05-01 01:36:00,
2013-04-30 20:42:00,67.3,65.2,29.84,ENE,77,0.0,2.0,93,0.00,,---,0.00,VWS V14.01,2013-05-01 01:42:00,
2013-04-30 20:47:00,67.2,65.1,29.84,ENE,77,0.0,2.0,93,0.00,,---,0.00,VWS V14.01,2013-05-01 01:47:00,
2013-04-30 20:52:00,67.2,65.1,29.84,ENE,77,0.0,2.0,93,0.00,,---,0.00,VWS V14.01,2013-05-01 01:52:00,
2013-04-30 20:57:00,67.1,65.0,29.84,ENE,77,0.0,2.0,93,0.00,,---,0.00,VWS V14.01,2013-05-01 01:57:00,
2013-04-30 21:02:00,67.1,65.0,29.84,ENE,77,1.0,2.0,93,0.00,,---,0.00,VWS V14.01,2013-05-01 02:02:00,
2013-04-30 21:06:00,67.1,65.0,29.85,ENE,77,0.0,2.0,93,0.00,,---,0.00,VWS V14.01,2013-05-01 02:06:00,
2013-04-30 21:07:00,67.1,65.0,29.85,ENE,77,0.0,1.0,93,0.00,,---,0.00,VWS V14.01,2013-05-01 02:07:00,
2013-04-30 21:12:00,67.1,65.0,29.85,ENE,77,0.0,1.0,93,0.00,,---,0.00,VWS V14.01,2013-05-01 02:12:00,
2013-04-30 21:17:00,67.0,64.9,29.85,ENE,77,0.0,1.0,93,0.00,,---,0.00,VWS V14.01,2013-05-01 02:17:00,
2013-04-30 21:22:00,67.1,65.0,29.85,ENE,77,1.0,2.0,93,0.00,,---,0.00,VWS V14.01,2013-05-01 02:22:00,
2013-04-30 21:27:00,67.1,65.0,29.85,ENE,77,1.0,2.0,93,0.00,,---,0.00,VWS V14.01,2013-05-01 02:27:00,
2013-04-30 21:32:00,67.1,65.0,29.86,ENE,77,2.0,2.0,93,0.00,,---,0.00,VWS V14.01,2013-05-01 02:32:00,
2013-04-30 21:37:00,67.1,65.0,29.86,ENE,77,0.0,1.0,93,0.00,,---,0.00,VWS V14.01,2013-05-01 02:37:00,
2013-04-30 21:42:00,67.0,64.9,29.86,ENE,77,0.0,2.0,93,0.00,,---,0.00,VWS V14.01,2013-05-01 02:42:00,
2013-04-30 21:47:00,67.0,64.9,29.86,ENE,77,1.0,2.0,93,0.00,,---,0.00,VWS V14.01,2013-05-01 02:47:00,
2013-04-30 21:52:00,67.0,64.9,29.87,ENE,77,1.0,2.0,93,0.00,,---,0.00,VWS V14.01,2013-05-01 02:52:00,
2013-04-30 21:57:00,67.1,65.0,29.87,ENE,77,0.0,2.0,93,0.00,,---,0.00,VWS V14.01,2013-05-01 02:57:00,
2013-04-30 22:02:00,67.1,65.0,29.87,ENE,77,0.0,2.0,93,0.00,,---,0.00,VWS V14.01,2013-05-01 03:02:00,
2013-04-30 22:06:00,67.1,65.0,29.87,ENE,77,0.0,2.0,93,0.00,,---,0.00,VWS V14.01,2013-05-01 03:06:00,
2013-04-30 22:07:00,67.1,65.0,29.87,ENE,77,1.0,1.0,93,0.00,,---,0.00,VWS V14.01,2013-05-01 03:07:00,
2013-04-30 22:12:00,67.0,64.9,29.87,ENE,77,1.0,2.0,93,0.00,,---,0.00,VWS V14.01,2013-05-01 03:12:00,
2013-04-30 22:17:00,67.0,64.9,29.87,ENE,77,0.0,2.0,93,0.00,,---,0.00,VWS V14.01,2013-05-01 03:17:00,
2013-04-30 22:23:00,67.0,64.9,29.87,ENE,77,1.0,2.0,93,0.00,,---,0.00,VWS V14.01,2013-05-01 03:23:00,
2013-04-30 22:28:00,66.9,64.8,29.87,ENE,77,0.0,2.0,93,0.00,,---,0.00,VWS V14.01,2013-05-01 03:28:00,
2013-04-30 22:33:00,66.9,64.8,29.88,ENE,77,1.0,2.0,93,0.00,,---,0.00,VWS V14.01,2013-05-01 03:33:00,
2013-04-30 22:36:00,66.8,64.7,29.88,ENE,77,0.0,2.0,93,0.00,,---,0.00,VWS V14.01,2013-05-01 03:36:00,
2013-04-30 22:38:00,66.8,64.7,29.88,ENE,77,0.0,0.0,93,0.00,,---,0.00,VWS V14.01,2013-05-01 03:38:00,
2013-04-30 22:43:00,66.8,64.7,29.88,ENE,77,0.0,2.0,93,0.00,,---,0.00,VWS V14.01,2013-05-01 03:43:00,
2013-04-30 22:48:00,66.7,64.6,29.88,ENE,77,1.0,2.0,93,0.00,,---,0.00,VWS V14.01,2013-05-01 03:48:00,
2013-04-30 22:53:00,66.7,64.6,29.88,ENE,77,1.0,2.0,93,0.00,,---,0.00,VWS V14.01,2013-05-01 03:53:00,
2013-04-30 22:58:00,66.7,64.6,29.87,ENE,77,2.0,2.0,93,0.00,,---,0.00,VWS V14.01,2013-05-01 03:58:00,
2013-04-30 23:03:00,66.6,64.5,29.88,ENE,77,1.0,2.0,93,0.00,,---,0.00,VWS V14.01,2013-05-01 04:03:00,
2013-04-30 23:08:00,66.6,64.5,29.88,ENE,77,1.0,2.0,93,0.00,,---,0.00,VWS V14.01,2013-05-01 04:08:00,
2013-04-30 23:13:00,66.6,64.5,29.88,ENE,77,1.0,2.0,93,0.00,,---,0.00,VWS V14.01,2013-05-01 04:13:00,
2013-04-30 23:18:00,66.5,64.4,29.88,ENE,77,1.0,2.0,93,0.00,,---,0.00,VWS V14.01,2013-05-01 04:18:00,
2013-04-30 23:23:00,66.5,64.4,29.88,ENE,77,2.0,2.0,93,0.00,,---,0.00,VWS V14.01,2013-05-01 04:23:00,
2013-04-30 23:28:00,66.5,64.4,29.87,ENE,77,1.0,2.0,93,0.00,,---,0.00,VWS V14.01,2013-05-01 04:28:00,
2013-04-30 23:33:00,66.5,64.4,29.88,ENE,77,2.0,2.0,93,0.00,,---,0.00,VWS V14.01,2013-05-01 04:33:00,
2013-04-30 23:36:00,66.5,64.4,29.87,ENE,77,0.0,2.0,93,0.00,,---,0.00,VWS V14.01,2013-05-01 04:36:00,
2013-04-30 23:38:00,66.5,64.4,29.88,ENE,77,1.0,1.0,93,0.00,,---,0.00,VWS V14.01,2013-05-01 04:38:00,
2013-04-30 23:43:00,66.6,64.5,29.87,ENE,75,1.0,3.0,93,0.00,,---,0.00,VWS V14.01,2013-05-01 04:43:00,
2013-04-30 23:48:00,66.5,64.4,29.87,ENE,75,0.0,3.0,93,0.00,,---,0.00,VWS V14.01,2013-05-01 04:48:00,
2013-04-30 23:53:00,66.6,64.5,29.87,ENE,75,1.0,3.0,93,0.00,,---,0.00,VWS V14.01,2013-05-01 04:53:00,
2013-04-30 23:58:00,66.6,64.5,29.88,ENE,75,1.0,3.0,93,0.00,,---,0.00,VWS V14.01,2013-05-01 04:58:00,